Regional Weather Roundup
Issued by NWS Midland/Odessa, TX

Skip options and go directly to product.
Home | Oldest Version | Previous Version | Current Version | All | Text Only | Save Text | Print | Product List | Glossary Off

Skip product version selection by date and time.   

270
ASUS44 KMAF 010110
RWRMAF
MIDLAND AREA WEATHER ROUNDUP
NATIONAL WEATHER SERVICE MIDLAND TX
800 PM CDT WED AUG 31 2016

...IN SOUTHWEST TEXAS AND SOUTHEAST NEW MEXICO...

CITY           SKY/WX    TMP DP  RH WIND       PRES   REMARKS
ALPINE         CLOUDY    68  63  85 E6        30.22R
ANDREWS        NOT AVBL
ARTESIA        CLOUDY    73  70  88 N6        30.14S
BIG SPRING     CLOUDY    75  70  84 N12       30.09S
CARLSBAD       CLOUDY    75  65  70 NE5       30.11S
DRYDEN           N/A     82  67  60 N8        30.00R
FORT STOCKTON  PTCLDY    79  64  60 E8        30.08R
GUAD PASS      PTCLDY    67  62  84 NE20      30.23R
HOBBS          CLOUDY    72  72 100 NE8       30.16F
MARFA          PTCLDY   N/A N/A N/A NE7       30.19R
MIDLAND AIRPK  PTCLDY    74  65  73 N6        30.10S
MIDLAND INTL   CLOUDY    75  66  73 N16       30.09R
ODESSA         MOCLDY    75  65  70 NE13      30.11R
PECOS          CLOUDY    77  67  71 N9        30.07R
PRESIDIO       NOT AVBL
SEMINOLE       CLOUDY    71  66  85 N5        30.15S
SNYDER           N/A     76  67  71 N12       30.08R
WINK           MOCLDY    76  66  71 E6        30.08S
$$
...OTHER STATIONS IN TEXAS...

CITY           SKY/WX    TMP DP  RH WIND       PRES   REMARKS
ABILENE        CLOUDY    84  67  56 CALM      30.01R
AMARILLO       CLOUDY    70  63  78 CALM      30.18S
AUSTIN         PTCLDY    87  71  58 E6        29.89R
BROWNSVILLE    MOCLDY    84  76  76 NE12      29.86R
CORPUS CHRISTI MOCLDY    81  74  79 N7        29.87R
DALLAS FTW     PTCLDY    88  69  53 NE5       29.92R
DEL RIO        CLOUDY    82  74  76 CALM      29.93R
EL PASO        PTCLDY    79  64  60 E7        30.09R
HOUSTON INT    PTCLDY    81  75  82 W3        29.86R
LUBBOCK        MOCLDY    69  65  86 NE5       30.14R
SAN ANGELO     CLOUDY    83  65  54 NE5       30.01R
SAN ANTONIO    CLOUDY    84  71  65 CALM      29.92S
WACO           CLEAR     86  72  62 E5        29.92R
WICHITA FALLS  NOT AVBL
$$
...OTHER LOCATIONS IN NEW MEXICO...

CITY           SKY/WX    TMP DP  RH WIND       PRES   REMARKS
ALAMAGORDO     CLOUDY    79  57  47 N3        30.13S
ALBUQUERQUE    PTCLDY    78  54  43 E20       30.19R
CANNON AFB     PTCLDY    68  65  89 SE3       30.21R
CLOVIS         PTCLDY    68  61  77 CALM      30.21S
HOLLOMAN AFB   PTCLDY    80  58  47 N2        30.11R
ROSWELL        LGT RAIN  70  66  87 W7        30.16R
RUIDOSO          N/A     59  57  94 SE8       30.35R
SANTA FE       CLOUDY    70  50  49 SE17G24   30.28R
TRUTH OR CONSE MOCLDY    78  56  46 S6        30.15S
TUCUMCARI      NOT AVBL
$$

USA.gov is the U.S. government's official web portal to all federal, state and local government web resources and services.